Regional Weather Roundup
Issued by NWS Upton, NY

Home | Current Version | Previous Version | Text Only | Print | Product List | Glossary On
Versions: 1 2 3 4 5 6 7 8 9 10 11 12 13 14 15 16 17 18 19 20 21 22 23 24 25 26 27
000
ASUS41 KOKX 200208
RWROKX

REGIONAL WEATHER ROUNDUP
NATIONAL WEATHER SERVICE NEW YORK NY
1000 PM EDT THU OCT 19 2017

NOTE: "FAIR" INDICATES FEW OR NO CLOUDS BELOW 12,000 FEET WITH NO
SIGNIFICANT WEATHER AND/OR OBSTRUCTIONS TO VISIBILITY.

NYZ071-072-176-178-NJZ106-104-200300-
NEW YORK CITY METRO AREA

CITY           SKY/WX    TMP DP  RH WIND       PRES   REMARKS
Central Park   CLEAR     64  45  49 CALM      30.12R
Bronx Bot Gard   N/A     64  43  45 W7        30.11R
LaGuardia APRT PTCLDY    66  46  48 SW9       30.09R
Kennedy INTL   PTCLDY    62  50  64 SW14      30.11R
Breezy Point     N/A     61 N/A N/A SW8         N/A
Newark/Liberty PTCLDY    62  44  51 SW12      30.09S
Teterboro      CLEAR     61  45  55 SW6       30.08R
$$

NYZ177-179-078>081-200300-
LONG ISLAND NEW YORK

CITY           SKY/WX    TMP DP  RH WIND       PRES   REMARKS
Jones Beach      N/A     63 N/A N/A SW12G18     N/A
Matinecock PT    N/A     64 N/A N/A SW10        N/A
Farmingdale    CLEAR     62  49  62 SW8       30.09S
MacArthur/ISP  PTCLDY    61  55  81 SW10      30.08S
Shirley        CLEAR     64  57  78 SW7       30.09S
Mt Sinai Harb    N/A    N/A N/A N/A SW7         N/A
Westhampton    PTCLDY    62  56  80 SW10      30.10S
East Hampton   FAIR      60  55  84 SW7       30.08S
Montauk          N/A     62  58  86 SW9G17    30.09S
$$

NYZ052-065-067-200300-
HUDSON VALLEY

CITY           SKY/WX    TMP DP  RH WIND       PRES   REMARKS
White Plains   CLEAR     62  43  49 VRB6      30.08R
Larchmont Harb   N/A     66 N/A N/A SW16        N/A
Croton On Huds   N/A     63 N/A N/A S6          N/A
Newburgh       CLEAR     61  46  59 W9        30.08S
Montgomery     PTCLDY    57  45  64 SW9       30.06S
Poughkeepsie   PTCLDY    51  45  79 SE5       30.06R
Albany         CLOUDY    57  45  64 S3        30.01R
$$

NJZ001-105-106-008-010-013-015-019>022-104-200300-
NEW JERSEY

CITY           SKY/WX    TMP DP  RH WIND       PRES   REMARKS
Newark/Liberty PTCLDY    62  44  51 SW12      30.09S
Teterboro      CLEAR     61  45  55 SW6       30.08R
Caldwell       CLEAR     58  48  69 SW3       30.10R
Somerville     CLEAR     49  47  93 CALM      30.10R
Linden         FAIR      62  44  51 W5        30.10R
Perth Amboy      N/A     59 N/A N/A W3          N/A
Sussex         PTCLDY    50  46  86 CALM      30.09S
Andover          N/A     50  48  93 CALM      30.10S
Trenton        CLEAR     59  46  62 W3        30.11S
Millville      CLEAR     50  48  93 CALM      30.15R
Atlantic City  CLEAR     58  54  86 SW5       30.14S
Wrightstown    CLEAR     54  50  84 SW7       30.10S
Toms River       N/A     50  46  86 SW3       30.14R
Belmar         CLEAR     57  50  77 SW7         N/A
$$

PAZ047>061-062-071-200300-
EASTERN PENNSYLVANIA

CITY           SKY/WX    TMP DP  RH WIND       PRES   REMARKS
Philadelphia   CLEAR     61  49  64 SW10      30.14R
Allentown      CLEAR     57  47  69 W5        30.11S
Scranton       CLEAR     61  46  57 SW7       30.10S
$$

CTZ002-004>006-009-010-012-RIZ004-006-007-MAZ004-011-015-200300-
SOUTHERN NEW ENGLAND
 IN CT

CITY           SKY/WX    TMP DP  RH WIND       PRES   REMARKS
Bradley INTL   CLOUDY    60  50  69 S8        30.04R
Hartford       CLOUDY    59  53  80 S10       30.04S
Danbury        CLOUDY    53  45  74 SW3       30.09R
Wtrbury/Oxford PTCLDY    56  49  77 SW3       30.08R
Norwalk Harbor   N/A     64 N/A N/A SW15        N/A
Bridgeport     PTCLDY    65  53  65 SW13      30.07R
Meriden        CLOUDY    51  49  92 S3        30.06R
New Haven      PTCLDY    65  55  70 SW10      30.07R
Chester        FAIR      59  55  88 SW6       30.07S
Groton         CLEAR     63  56  78 SW13      30.07R
Wilimantic     CLEAR     57  52  83 S3        30.06R

 IN RI

CITY           SKY/WX    TMP DP  RH WIND       PRES   REMARKS
Providence     CLEAR     57  54  89 SW7       30.06R
Block Island   CLEAR     61  57  87 SW20      30.08S
Westerly       CLEAR     63  57  81 SW9G21    30.08R
 IN MA

CITY           SKY/WX    TMP DP  RH WIND       PRES   REMARKS
Boston         CLEAR     60  50  69 SW18      30.01R
Worcester      CLEAR     55  45  68 SW16      30.03R
Westfield      CLOUDY    59  46  62 S8        30.02R
Provincetown   CLEAR     59  56  89 SW21      30.03S
Nantucket      CLEAR     60  59  96 SW18      30.07F
$$

ANZ330-335-338-340-345-350-353-355-200300-
COASTAL MARINE OBSERVATIONS


STATION/POSITION TIME  SKY/WX   TEMP    WIND        PRES    VSBY  WAVE
                                AIR SEA DIR/SP/G                  HT/PER
                 (UTC)          (F)     (DEG/KT/KT) (MB)    (MI)  (FT/S)
NY HARB ENTRANCE 0050            65 65  220/ 16/ 19 1018.3          4/ 9
20 S FIRE ISLAND 0150            64 64  240/ 16/ 19 1019.4          5/ 5
GREAT SOUTH BAY  0130            64 62  240/ 14/ 17   N/A
15 E BARNEGAT LI 0100               66                N/A           4/ 9
HUDSON CANYON    0050            64 65  230/ 16/ 19 1020.0          4/10
KINGS POINT      0130            66 66  260/ 11/ 14 1019.4
EXECUTION ROCKS  0130            67     200/ 12/ 16   N/A
WESTERN LI SOUND 0049            66     220/ 14/ 19   N/A           1/ 3
CENTRAL LI SOUND 0115            64     220/ 17/ 21   N/A           2
EASTERN LI SOUND NOT AVBL
ROBBINS REEF     0130            64     240/  8/ 12 1019.8
$$


>>>>>>>>>>>>>>>>>>>>>>>>>>>> KEY <<<<<<<<<<<<<<<<<<<<<<<<<<<
>                                                          <
>     SKY/WX - Sky Condition/Present Weather               <
>     TMP    - Temperature in Fahrenheit                   <
>     DP     - Dew Point in Fahrenheit                     <
>     RH     - Relative Humidity in Percent                <
>     WIND   - Direction (from) and Speed in MPH           <
>     PRES   - Mean Sea Level Pressure (inches of Hg)      <
>     WCI    - Wind Chill Index                            <
>     VSB    - VISIBILITY IN MILES                         <
>     HX     - HEAT INDEX                                  <
>     TC     - TEMPERATURE IN CELSIUS                      <
>     VRB    - VARIABLE WIND DIRECTION                     <
>                                                          <
>>>>>>>>>>>>>>>>>>>>>>>>>>>> KEY <<<<<<<<<<<<<<<<<<<<<<<<<<<




USA.gov is the U.S. government's official web portal to all federal, state and local government web resources and services.